STARLINK-4564, 53560

Orbit data source: Space-Track

STARLINK-4564, 53560 is a payload satellite owned by SpaceX/Seattle (US) in LEO that was launched on Fri, 19 Aug 2022 UTC via an FALCON 9 launch vehicle from the Air Force Eastern Test Range (AFETR). Payload-class satellites include a variety of spacecraft equipped with specific instruments for various scientific and technological missions. These include communications satellites like Starlink; space stations such as the ISS; scientific satellites like the Hubble; Earth observation satellites from companies like Planet Labs, Umbra, and HawkEye 360; GPS; miniature CubeSats for education and research; and military/defense satellites.

Loading next visibility...
Identifier
53560, 2022-101AK
Orbit
LEO
Country
Flag of USUS
Related business
Manufacturer
SpaceX/Seattle
Mission
Operational Commercial Communications
Bus & Motor
STARLINK, Unknown motor
Mass
300 kg wet, ~290 kg dry
Launch date (UTC)
2022-08-19 (4 years ago)
Launch vehicle
FALCON 9
Launch site
Air Force Eastern Test Range (AFETR)
Object type
Payload
Rocket body
Debris
Shape & HBR
Box + 1 Pan, 10.1 m
Radar Cross Section
13.562 m², Large (>1 m²)

Expand to show TLE details & history
Last TLE update: 3 days ago

TLE from 3 days ago
0 STARLINK-4564
1 53560U 22101AK  26170.64024380 -.00000246  00000-0  26178-5 0  9990
2 53560  53.1611 316.5212 0001331  98.8626 261.2516 15.08829163211836
Epoch: 2026-06-19T15:21Z
TLE epoch observation values (Epoch: 2026-06-19T15:21:57.064Z)
Latitude
-0.00003°
Longitude
178.16709°
Altitude
540.808 km
Speed
7.593 km/s
True Right ascension
21h 06m 05s
True Declination
0° 00' 00"
Sunlit
Object was in full shadow at epoch
Visualization orbit readout
Latitude
Unknown
Longitude
Unknown
Altitude
Unknown
Speed
Unknown
Apparent Right ascension
Unknown
Apparent Declination
Unknown
Sunlit
N/A
Visualization observer readout
Local Sidereal Time
00:38:50
Azimuth
Unknown
Elevation
Unknown
Doppler factor
Unknown
Orbital elements
Apogee altitude
540.951 km
Perigee altitude
539.11 km
Semi-major axis
6,918.167 km
Eccentricity
0.00013
Inclination
53.1611°
RAAN
316.5212°
Arg. of periapsis
98.8626°
True anomaly
261.23653°
Mean anomaly
261.2516°
Eccentric anomaly
261.24406°
Mean motion
3.77187 °/min
Orbital period
95.44 mins
BSTAR
0.0000026178
Loading maneuver chart data...
Computing Atmospheric mass density...
Loading historical data...
Loading historical data...
Loading historical data...
Loading historical data...
Loading historical data...
Loading historical data...
Loading historical data...

Documentation

Showing up to 5 results
|